owner,sensor,date,latitude,longitude,air_temperature,qcFlag 
COMPS,ioos:station:USF.COMPS:C10:1,2010-09-14T23:20:00Z,27.1690,-82.9260,29.6,1111122 
COMPS,ioos:station:USF.COMPS:C10:1,2010-09-14T23:40:00Z,27.1690,-82.9260,29.45,1111122 
COMPS,ioos:station:USF.COMPS:C10:1,2010-09-15T00:20:00Z,27.1690,-82.9260,29.23,1111122 
COMPS,ioos:station:USF.COMPS:C10:1,2010-09-15T00:40:00Z,27.1690,-82.9260,29.08,1111122 
COMPS,ioos:station:USF.COMPS:C10:1,2010-09-15T01:00:00Z,27.1690,-82.9260,28.89,1111122 
COMPS,ioos:station:USF.COMPS:C10:1,2010-09-15T01:20:00Z,27.1690,-82.9260,28.32,1111122 
COMPS,ioos:station:USF.COMPS:C10:1,2010-09-15T01:40:00Z,27.1690,-82.9260,28.14,1111122 
COMPS,ioos:station:USF.COMPS:C10:1,2010-09-15T02:20:00Z,27.1690,-82.9260,27.87,1111122 
COMPS,ioos:station:USF.COMPS:C10:1,2010-09-15T02:40:00Z,27.1690,-82.9260,27.78,1111122 
COMPS,ioos:station:USF.COMPS:C10:1,2010-09-15T03:00:00Z,27.1690,-82.9260,27.57,1111122 
COMPS,ioos:station:USF.COMPS:C10:1,2010-09-15T03:20:00Z,27.1690,-82.9260,27.44,1111122 
COMPS,ioos:station:USF.COMPS:C10:1,2010-09-15T03:40:00Z,27.1690,-82.9260,27.23,1111122 
COMPS,ioos:station:USF.COMPS:C10:1,2010-09-15T04:00:00Z,27.1690,-82.9260,27.11,1111122 
COMPS,ioos:station:USF.COMPS:C10:1,2010-09-15T04:20:00Z,27.1690,-82.9260,26.88,1111122 
COMPS,ioos:station:USF.COMPS:C10:1,2010-09-15T04:40:00Z,27.1690,-82.9260,26.72,1111122 
COMPS,ioos:station:USF.COMPS:C10:1,2010-09-15T05:00:00Z,27.1690,-82.9260,26.73,1111122 
COMPS,ioos:station:USF.COMPS:C10:1,2010-09-15T05:20:00Z,27.1690,-82.9260,26.55,1111122 
COMPS,ioos:station:USF.COMPS:C10:1,2010-09-15T05:40:00Z,27.1690,-82.9260,26.35,1111122 
COMPS,ioos:station:USF.COMPS:C10:1,2010-09-15T06:00:00Z,27.1690,-82.9260,26.21,1111122 
COMPS,ioos:station:USF.COMPS:C10:1,2010-09-15T06:20:00Z,27.1690,-82.9260,26.22,1111122 
COMPS,ioos:station:USF.COMPS:C10:1,2010-09-15T06:40:00Z,27.1690,-82.9260,26.11,1111122 
COMPS,ioos:station:USF.COMPS:C10:1,2010-09-15T07:00:00Z,27.1690,-82.9260,26.02,1111122 
COMPS,ioos:station:USF.COMPS:C10:1,2010-09-15T07:20:00Z,27.1690,-82.9260,26.05,1111122 
COMPS,ioos:station:USF.COMPS:C10:1,2010-09-15T07:40:00Z,27.1690,-82.9260,25.89,1111122 
COMPS,ioos:station:USF.COMPS:C10:1,2010-09-15T08:00:00Z,27.1690,-82.9260,25.96,1111122 
COMPS,ioos:station:USF.COMPS:C10:1,2010-09-15T08:20:00Z,27.1690,-82.9260,25.91,1111122 
COMPS,ioos:station:USF.COMPS:C10:1,2010-09-15T08:40:00Z,27.1690,-82.9260,25.95,1111122 
COMPS,ioos:station:USF.COMPS:C10:1,2010-09-15T09:00:00Z,27.1690,-82.9260,25.77,1111122 
COMPS,ioos:station:USF.COMPS:C10:1,2010-09-15T09:20:00Z,27.1690,-82.9260,25.8,1111122 
COMPS,ioos:station:USF.COMPS:C10:1,2010-09-15T09:40:00Z,27.1690,-82.9260,25.61,1111122 
COMPS,ioos:station:USF.COMPS:C10:1,2010-09-15T10:00:00Z,27.1690,-82.9260,25.55,1111122 
COMPS,ioos:station:USF.COMPS:C10:1,2010-09-15T10:20:00Z,27.1690,-82.9260,25.52,1111122 
COMPS,ioos:station:USF.COMPS:C10:1,2010-09-15T10:40:00Z,27.1690,-82.9260,25.58,1111122 
COMPS,ioos:station:USF.COMPS:C10:1,2010-09-15T11:00:00Z,27.1690,-82.9260,25.54,1111122 
COMPS,ioos:station:USF.COMPS:C10:1,2010-09-15T11:20:00Z,27.1690,-82.9260,25.52,1111122 
COMPS,ioos:station:USF.COMPS:C10:1,2010-09-15T11:40:00Z,27.1690,-82.9260,25.59,1111122 
COMPS,ioos:station:USF.COMPS:C10:1,2010-09-15T12:00:00Z,27.1690,-82.9260,25.61,1111122 
COMPS,ioos:station:USF.COMPS:C10:1,2010-09-15T12:20:00Z,27.1690,-82.9260,25.8,1111122 
COMPS,ioos:station:USF.COMPS:C10:1,2010-09-15T12:40:00Z,27.1690,-82.9260,25.73,1111122 
COMPS,ioos:station:USF.COMPS:C10:1,2010-09-15T13:00:00Z,27.1690,-82.9260,25.74,1111122 
COMPS,ioos:station:USF.COMPS:C10:1,2010-09-15T13:20:00Z,27.1690,-82.9260,25.91,1111122 
COMPS,ioos:station:USF.COMPS:C10:1,2010-09-15T13:40:00Z,27.1690,-82.9260,25.93,1111122 
COMPS,ioos:station:USF.COMPS:C10:1,2010-09-15T14:00:00Z,27.1690,-82.9260,25.87,1111122 
COMPS,ioos:station:USF.COMPS:C10:1,2010-09-15T14:20:00Z,27.1690,-82.9260,26.07,1111122 
COMPS,ioos:station:USF.COMPS:C10:1,2010-09-15T14:40:00Z,27.1690,-82.9260,26.03,1111122 
COMPS,ioos:station:USF.COMPS:C10:1,2010-09-15T15:00:00Z,27.1690,-82.9260,26.21,1111122 
COMPS,ioos:station:USF.COMPS:C10:1,2010-09-15T15:20:00Z,27.1690,-82.9260,26.44,1111122 
COMPS,ioos:station:USF.COMPS:C10:1,2010-09-15T15:40:00Z,27.1690,-82.9260,26.44,1111122 
COMPS,ioos:station:USF.COMPS:C10:1,2010-09-15T16:00:00Z,27.1690,-82.9260,26.53,1111122 
COMPS,ioos:station:USF.COMPS:C10:1,2010-09-15T16:20:00Z,27.1690,-82.9260,26.77,1111122 
COMPS,ioos:station:USF.COMPS:C10:1,2010-09-15T16:40:00Z,27.1690,-82.9260,26.94,1111122 
COMPS,ioos:station:USF.COMPS:C10:1,2010-09-15T17:00:00Z,27.1690,-82.9260,27.16,1111122 
COMPS,ioos:station:USF.COMPS:C10:1,2010-09-15T17:20:00Z,27.1690,-82.9260,27.22,1111122 
COMPS,ioos:station:USF.COMPS:C10:1,2010-09-15T17:40:00Z,27.1690,-82.9260,27.48,1111122 
COMPS,ioos:station:USF.COMPS:C10:1,2010-09-15T18:00:00Z,27.1690,-82.9260,27.64,1111122 
COMPS,ioos:station:USF.COMPS:C10:1,2010-09-15T18:20:00Z,27.1690,-82.9260,27.72,1111122 
COMPS,ioos:station:USF.COMPS:C10:1,2010-09-15T18:40:00Z,27.1690,-82.9260,27.9,1111122 
COMPS,ioos:station:USF.COMPS:C10:1,2010-09-15T19:00:00Z,27.1690,-82.9260,28.12,1111122 
COMPS,ioos:station:USF.COMPS:C10:1,2010-09-15T19:20:00Z,27.1690,-82.9260,28.26,1111122 
COMPS,ioos:station:USF.COMPS:C10:1,2010-09-15T19:40:00Z,27.1690,-82.9260,28.39,1111122 
COMPS,ioos:station:USF.COMPS:C10:1,2010-09-15T20:00:00Z,27.1690,-82.9260,28.56,1111122 
COMPS,ioos:station:USF.COMPS:C10:1,2010-09-15T20:20:00Z,27.1690,-82.9260,28.8,1111122 
COMPS,ioos:station:USF.COMPS:C10:1,2010-09-15T20:40:00Z,27.1690,-82.9260,29.45,1111122 
COMPS,ioos:station:USF.COMPS:C10:1,2010-09-15T21:00:00Z,27.1690,-82.9260,29.39,1111122 
COMPS,ioos:station:USF.COMPS:C10:1,2010-09-15T21:20:00Z,27.1690,-82.9260,28.84,1111122 
COMPS,ioos:station:USF.COMPS:C10:1,2010-09-15T21:40:00Z,27.1690,-82.9260,28.58,1111122 
COMPS,ioos:station:USF.COMPS:C10:1,2010-09-15T22:00:00Z,27.1690,-82.9260,28.77,1111122 
COMPS,ioos:station:USF.COMPS:C10:1,2010-09-15T22:20:00Z,27.1690,-82.9260,28.66,1111122 
COMPS,ioos:station:USF.COMPS:C10:1,2010-09-15T22:40:00Z,27.1690,-82.9260,28.53,1111122 
COMPS,ioos:station:USF.COMPS:C10:1,2010-09-15T23:00:00Z,27.1690,-82.9260,28.53,1111122 
COMPS,ioos:station:USF.COMPS:C10:1,2010-09-15T23:20:00Z,27.1690,-82.9260,28.44,1111122 
COMPS,ioos:station:USF.COMPS:C10:1,2010-09-15T23:40:00Z,27.1690,-82.9260,28.52,1111122 
COMPS,ioos:station:USF.COMPS:C10:1,2010-09-16T00:00:00Z,27.1690,-82.9260,28.55,1111122 
COMPS,ioos:station:USF.COMPS:C10:1,2010-09-16T00:20:00Z,27.1690,-82.9260,28.47,1111122 
COMPS,ioos:station:USF.COMPS:C10:1,2010-09-16T00:40:00Z,27.1690,-82.9260,29.11,1111122 
COMPS,ioos:station:USF.COMPS:C10:1,2010-09-16T01:00:00Z,27.1690,-82.9260,28.92,1111122 
COMPS,ioos:station:USF.COMPS:C10:1,2010-09-16T01:20:00Z,27.1690,-82.9260,28.6,1111122 
COMPS,ioos:station:USF.COMPS:C10:1,2010-09-16T01:40:00Z,27.1690,-82.9260,28.01,1111122 
COMPS,ioos:station:USF.COMPS:C10:1,2010-09-16T02:00:00Z,27.1690,-82.9260,27.75,1111122 
COMPS,ioos:station:USF.COMPS:C10:1,2010-09-16T02:20:00Z,27.1690,-82.9260,27.58,1111122 
COMPS,ioos:station:USF.COMPS:C10:1,2010-09-16T02:40:00Z,27.1690,-82.9260,27.2,1111122 
COMPS,ioos:station:USF.COMPS:C10:1,2010-09-16T03:00:00Z,27.1690,-82.9260,26.77,1111122 
COMPS,ioos:station:USF.COMPS:C10:1,2010-09-16T03:20:00Z,27.1690,-82.9260,26.63,1111122 
COMPS,ioos:station:USF.COMPS:C10:1,2010-09-16T03:40:00Z,27.1690,-82.9260,26.55,1111122 
COMPS,ioos:station:USF.COMPS:C10:1,2010-09-16T04:00:00Z,27.1690,-82.9260,26.42,1111122 
COMPS,ioos:station:USF.COMPS:C10:1,2010-09-16T04:20:00Z,27.1690,-82.9260,26.46,1111122 
COMPS,ioos:station:USF.COMPS:C10:1,2010-09-16T04:40:00Z,27.1690,-82.9260,26.34,1111122 
COMPS,ioos:station:USF.COMPS:C10:1,2010-09-16T05:00:00Z,27.1690,-82.9260,26.37,1111122 
COMPS,ioos:station:USF.COMPS:C10:1,2010-09-16T05:20:00Z,27.1690,-82.9260,26.51,1111122 
COMPS,ioos:station:USF.COMPS:C10:1,2010-09-16T05:40:00Z,27.1690,-82.9260,26.47,1111122 
COMPS,ioos:station:USF.COMPS:C10:1,2010-09-16T06:00:00Z,27.1690,-82.9260,26.3,1111122 
COMPS,ioos:station:USF.COMPS:C10:1,2010-09-16T06:20:00Z,27.1690,-82.9260,26.28,1111122 
COMPS,ioos:station:USF.COMPS:C10:1,2010-09-16T06:40:00Z,27.1690,-82.9260,26.25,1111122 
COMPS,ioos:station:USF.COMPS:C10:1,2010-09-16T07:00:00Z,27.1690,-82.9260,26.3,1111122 
COMPS,ioos:station:USF.COMPS:C10:1,2010-09-16T07:20:00Z,27.1690,-82.9260,26.4,1111122 
COMPS,ioos:station:USF.COMPS:C10:1,2010-09-16T07:40:00Z,27.1690,-82.9260,26.57,1111122 
COMPS,ioos:station:USF.COMPS:C10:1,2010-09-16T08:00:00Z,27.1690,-82.9260,26.37,1111122 
COMPS,ioos:station:USF.COMPS:C10:1,2010-09-16T08:20:00Z,27.1690,-82.9260,26.24,1111122 
COMPS,ioos:station:USF.COMPS:C10:1,2010-09-16T08:40:00Z,27.1690,-82.9260,26.15,1111122 
COMPS,ioos:station:USF.COMPS:C10:1,2010-09-16T09:00:00Z,27.1690,-82.9260,26.24,1111122 
COMPS,ioos:station:USF.COMPS:C10:1,2010-09-16T09:20:00Z,27.1690,-82.9260,26.22,1111122 
COMPS,ioos:station:USF.COMPS:C10:1,2010-09-16T09:40:00Z,27.1690,-82.9260,26.15,1111122 
COMPS,ioos:station:USF.COMPS:C10:1,2010-09-16T10:00:00Z,27.1690,-82.9260,26.23,1111122 
COMPS,ioos:station:USF.COMPS:C10:1,2010-09-16T10:20:00Z,27.1690,-82.9260,26.14,1111122 
COMPS,ioos:station:USF.COMPS:C10:1,2010-09-16T10:40:00Z,27.1690,-82.9260,26.12,1111122 
COMPS,ioos:station:USF.COMPS:C10:1,2010-09-16T11:00:00Z,27.1690,-82.9260,26.06,1111122 
COMPS,ioos:station:USF.COMPS:C10:1,2010-09-16T11:20:00Z,27.1690,-82.9260,26.04,1111122 
COMPS,ioos:station:USF.COMPS:C10:1,2010-09-16T11:40:00Z,27.1690,-82.9260,26.24,1111122 
COMPS,ioos:station:USF.COMPS:C10:1,2010-09-16T12:00:00Z,27.1690,-82.9260,26.02,1111122 
COMPS,ioos:station:USF.COMPS:C10:1,2010-09-16T12:20:00Z,27.1690,-82.9260,26.12,1111122 
COMPS,ioos:station:USF.COMPS:C10:1,2010-09-16T12:40:00Z,27.1690,-82.9260,26.26,1111122 
COMPS,ioos:station:USF.COMPS:C10:1,2010-09-16T13:00:00Z,27.1690,-82.9260,26.35,1111122 
COMPS,ioos:station:USF.COMPS:C10:1,2010-09-16T13:20:00Z,27.1690,-82.9260,26.46,1111122 
COMPS,ioos:station:USF.COMPS:C10:1,2010-09-16T13:40:00Z,27.1690,-82.9260,26.44,1111122 
COMPS,ioos:station:USF.COMPS:C10:1,2010-09-16T14:00:00Z,27.1690,-82.9260,26.49,1111122 
COMPS,ioos:station:USF.COMPS:C10:1,2010-09-16T14:20:00Z,27.1690,-82.9260,26.82,1111122 
COMPS,ioos:station:USF.COMPS:C10:1,2010-09-16T14:40:00Z,27.1690,-82.9260,26.84,1111122 
COMPS,ioos:station:USF.COMPS:C10:1,2010-09-16T15:00:00Z,27.1690,-82.9260,26.84,1111122 
COMPS,ioos:station:USF.COMPS:C10:1,2010-09-16T15:20:00Z,27.1690,-82.9260,26.85,1111122 
COMPS,ioos:station:USF.COMPS:C10:1,2010-09-16T15:40:00Z,27.1690,-82.9260,27.08,1111122 
COMPS,ioos:station:USF.COMPS:C10:1,2010-09-16T16:00:00Z,27.1690,-82.9260,27.19,1111122 
COMPS,ioos:station:USF.COMPS:C10:1,2010-09-16T16:20:00Z,27.1690,-82.9260,27.43,1111122 
COMPS,ioos:station:USF.COMPS:C10:1,2010-09-16T16:40:00Z,27.1690,-82.9260,27.55,1111122 
COMPS,ioos:station:USF.COMPS:C10:1,2010-09-16T17:00:00Z,27.1690,-82.9260,27.68,1111122 
COMPS,ioos:station:USF.COMPS:C10:1,2010-09-16T17:20:00Z,27.1690,-82.9260,27.86,1111122 
COMPS,ioos:station:USF.COMPS:C10:1,2010-09-16T17:40:00Z,27.1690,-82.9260,27.9,1111122 
COMPS,ioos:station:USF.COMPS:C10:1,2010-09-16T18:00:00Z,27.1690,-82.9260,28.09,1111122 
COMPS,ioos:station:USF.COMPS:C10:1,2010-09-16T18:20:00Z,27.1690,-82.9260,28.13,1111122 
COMPS,ioos:station:USF.COMPS:C10:1,2010-09-16T18:40:00Z,27.1690,-82.9260,28.26,1111122 
COMPS,ioos:station:USF.COMPS:C10:1,2010-09-16T19:00:00Z,27.1690,-82.9260,28.34,1111122 
COMPS,ioos:station:USF.COMPS:C10:1,2010-09-16T19:20:00Z,27.1690,-82.9260,28.44,1111122 
COMPS,ioos:station:USF.COMPS:C10:1,2010-09-16T19:40:00Z,27.1690,-82.9260,28.5,1111122 
COMPS,ioos:station:USF.COMPS:C10:1,2010-09-16T20:00:00Z,27.1690,-82.9260,28.5,1111122 
COMPS,ioos:station:USF.COMPS:C10:1,2010-09-16T20:20:00Z,27.1690,-82.9260,29.2,1111122 
COMPS,ioos:station:USF.COMPS:C10:1,2010-09-16T20:40:00Z,27.1690,-82.9260,29.1,1111122 
COMPS,ioos:station:USF.COMPS:C10:1,2010-09-16T21:00:00Z,27.1690,-82.9260,29.1,1111122 
COMPS,ioos:station:USF.COMPS:C10:1,2010-09-16T21:20:00Z,27.1690,-82.9260,28.64,1111122 
COMPS,ioos:station:USF.COMPS:C10:1,2010-09-16T21:40:00Z,27.1690,-82.9260,28.6,1111122 
COMPS,ioos:station:USF.COMPS:C10:1,2010-09-16T22:00:00Z,27.1690,-82.9260,28.6,1111122 
COMPS,ioos:station:USF.COMPS:C10:1,2010-09-16T22:20:00Z,27.1690,-82.9260,28.56,1111122 
COMPS,ioos:station:USF.COMPS:C10:1,2010-09-16T22:40:00Z,27.1690,-82.9260,28.66,1111122 
COMPS,ioos:station:USF.COMPS:C10:1,2010-09-16T23:00:00Z,27.1690,-82.9260,28.7,1111122 
COMPS,ioos:station:USF.COMPS:C10:1,2010-09-16T23:20:00Z,27.1690,-82.9260,28.55,1111122 
COMPS,ioos:station:USF.COMPS:C10:1,2010-09-16T23:40:00Z,27.1690,-82.9260,28.56,1111122 
COMPS,ioos:station:USF.COMPS:C10:1,2010-09-17T00:00:00Z,27.1690,-82.9260,28.6,1111122 
COMPS,ioos:station:USF.COMPS:C10:1,2010-09-17T00:20:00Z,27.1690,-82.9260,28.51,1111122 
COMPS,ioos:station:USF.COMPS:C10:1,2010-09-17T00:40:00Z,27.1690,-82.9260,28.59,1111122 
COMPS,ioos:station:USF.COMPS:C10:1,2010-09-17T01:00:00Z,27.1690,-82.9260,28.6,1111122 
COMPS,ioos:station:USF.COMPS:C10:1,2010-09-17T01:20:00Z,27.1690,-82.9260,28.66,1111122 
COMPS,ioos:station:USF.COMPS:C10:1,2010-09-17T01:40:00Z,27.1690,-82.9260,28.51,1111122 
COMPS,ioos:station:USF.COMPS:C10:1,2010-09-17T02:00:00Z,27.1690,-82.9260,28.5,1111122 
COMPS,ioos:station:USF.COMPS:C10:1,2010-09-17T02:20:00Z,27.1690,-82.9260,28.31,1111122 
COMPS,ioos:station:USF.COMPS:C10:1,2010-09-17T02:40:00Z,27.1690,-82.9260,28.41,1111122 
COMPS,ioos:station:USF.COMPS:C10:1,2010-09-17T03:00:00Z,27.1690,-82.9260,28.4,1111122 
COMPS,ioos:station:USF.COMPS:C10:1,2010-09-17T03:20:00Z,27.1690,-82.9260,27.65,1111122 
COMPS,ioos:station:USF.COMPS:C10:1,2010-09-17T03:40:00Z,27.1690,-82.9260,27.47,1111122 
COMPS,ioos:station:USF.COMPS:C10:1,2010-09-17T04:00:00Z,27.1690,-82.9260,27.5,1111122 
COMPS,ioos:station:USF.COMPS:C10:1,2010-09-17T04:20:00Z,27.1690,-82.9260,27.34,1111122 
COMPS,ioos:station:USF.COMPS:C10:1,2010-09-17T04:40:00Z,27.1690,-82.9260,27.3,1111122 
COMPS,ioos:station:USF.COMPS:C10:1,2010-09-17T05:00:00Z,27.1690,-82.9260,27.3,1111122 
COMPS,ioos:station:USF.COMPS:C10:1,2010-09-17T05:20:00Z,27.1690,-82.9260,27.12,1111122 
COMPS,ioos:station:USF.COMPS:C10:1,2010-09-17T05:40:00Z,27.1690,-82.9260,27.2,1111122 
COMPS,ioos:station:USF.COMPS:C10:1,2010-09-17T06:00:00Z,27.1690,-82.9260,27.2,1111122 
COMPS,ioos:station:USF.COMPS:C10:1,2010-09-17T06:20:00Z,27.1690,-82.9260,26.88,1111122 
COMPS,ioos:station:USF.COMPS:C10:1,2010-09-17T06:40:00Z,27.1690,-82.9260,26.88,1111122 
COMPS,ioos:station:USF.COMPS:C10:1,2010-09-17T07:00:00Z,27.1690,-82.9260,26.9,1111122 
COMPS,ioos:station:USF.COMPS:C10:1,2010-09-17T07:20:00Z,27.1690,-82.9260,26.68,1111122 
COMPS,ioos:station:USF.COMPS:C10:1,2010-09-17T07:40:00Z,27.1690,-82.9260,26.52,1111122 
COMPS,ioos:station:USF.COMPS:C10:1,2010-09-17T08:00:00Z,27.1690,-82.9260,26.5,1111122 
COMPS,ioos:station:USF.COMPS:C10:1,2010-09-17T08:20:00Z,27.1690,-82.9260,26.23,1111122 
COMPS,ioos:station:USF.COMPS:C10:1,2010-09-17T08:40:00Z,27.1690,-82.9260,26.42,1111122 
COMPS,ioos:station:USF.COMPS:C10:1,2010-09-17T09:00:00Z,27.1690,-82.9260,26.4,1111122 
COMPS,ioos:station:USF.COMPS:C10:1,2010-09-17T09:20:00Z,27.1690,-82.9260,26.19,1111122 
COMPS,ioos:station:USF.COMPS:C10:1,2010-09-17T09:40:00Z,27.1690,-82.9260,26.08,1111122 
COMPS,ioos:station:USF.COMPS:C10:1,2010-09-17T10:00:00Z,27.1690,-82.9260,26.1,1111122 
COMPS,ioos:station:USF.COMPS:C10:1,2010-09-17T10:20:00Z,27.1690,-82.9260,26.17,1111122 
COMPS,ioos:station:USF.COMPS:C10:1,2010-09-17T10:40:00Z,27.1690,-82.9260,26.12,1111122 
COMPS,ioos:station:USF.COMPS:C10:1,2010-09-17T11:00:00Z,27.1690,-82.9260,26.1,1111122 
COMPS,ioos:station:USF.COMPS:C10:1,2010-09-17T11:20:00Z,27.1690,-82.9260,26.09,1111122 
COMPS,ioos:station:USF.COMPS:C10:1,2010-09-17T11:40:00Z,27.1690,-82.9260,26.11,1111122 
COMPS,ioos:station:USF.COMPS:C10:1,2010-09-17T12:00:00Z,27.1690,-82.9260,26.1,1111122 
COMPS,ioos:station:USF.COMPS:C10:1,2010-09-17T12:20:00Z,27.1690,-82.9260,25.94,1111122 
COMPS,ioos:station:USF.COMPS:C10:1,2010-09-17T12:40:00Z,27.1690,-82.9260,25.93,1111122 
COMPS,ioos:station:USF.COMPS:C10:1,2010-09-17T13:00:00Z,27.1690,-82.9260,25.9,1111122 
COMPS,ioos:station:USF.COMPS:C10:1,2010-09-17T13:20:00Z,27.1690,-82.9260,26.03,1111122 
COMPS,ioos:station:USF.COMPS:C10:1,2010-09-17T13:40:00Z,27.1690,-82.9260,26.21,1111122 
COMPS,ioos:station:USF.COMPS:C10:1,2010-09-17T14:00:00Z,27.1690,-82.9260,26.2,1111122 
COMPS,ioos:station:USF.COMPS:C10:1,2010-09-17T14:20:00Z,27.1690,-82.9260,26.53,1111122 
COMPS,ioos:station:USF.COMPS:C10:1,2010-09-17T14:40:00Z,27.1690,-82.9260,26.48,1111122 
COMPS,ioos:station:USF.COMPS:C10:1,2010-09-17T15:00:00Z,27.1690,-82.9260,26.5,1111122 
COMPS,ioos:station:USF.COMPS:C10:1,2010-09-17T15:20:00Z,27.1690,-82.9260,26.79,1111122 
COMPS,ioos:station:USF.COMPS:C10:1,2010-09-17T15:40:00Z,27.1690,-82.9260,26.85,1111122 
COMPS,ioos:station:USF.COMPS:C10:1,2010-09-17T16:00:00Z,27.1690,-82.9260,26.9,1111122 
COMPS,ioos:station:USF.COMPS:C10:1,2010-09-17T16:20:00Z,27.1690,-82.9260,27.12,1111122 
COMPS,ioos:station:USF.COMPS:C10:1,2010-09-17T16:40:00Z,27.1690,-82.9260,27.26,1111122 
COMPS,ioos:station:USF.COMPS:C10:1,2010-09-17T17:00:00Z,27.1690,-82.9260,27.3,1111122 
COMPS,ioos:station:USF.COMPS:C10:1,2010-09-17T17:20:00Z,27.1690,-82.9260,27.44,1111122 
COMPS,ioos:station:USF.COMPS:C10:1,2010-09-17T17:40:00Z,27.1690,-82.9260,27.63,1111122 
COMPS,ioos:station:USF.COMPS:C10:1,2010-09-17T18:00:00Z,27.1690,-82.9260,27.6,1111122 
COMPS,ioos:station:USF.COMPS:C10:1,2010-09-17T18:20:00Z,27.1690,-82.9260,27.71,1111122 
COMPS,ioos:station:USF.COMPS:C10:1,2010-09-17T18:40:00Z,27.1690,-82.9260,27.9,1111122 
COMPS,ioos:station:USF.COMPS:C10:1,2010-09-17T19:00:00Z,27.1690,-82.9260,27.9,1111122 
COMPS,ioos:station:USF.COMPS:C10:1,2010-09-17T19:20:00Z,27.1690,-82.9260,27.9,1111122 
COMPS,ioos:station:USF.COMPS:C10:1,2010-09-17T19:40:00Z,27.1690,-82.9260,27.92,1111122 
COMPS,ioos:station:USF.COMPS:C10:1,2010-09-17T20:00:00Z,27.1690,-82.9260,27.9,1111122 
COMPS,ioos:station:USF.COMPS:C10:1,2010-09-17T20:20:00Z,27.1690,-82.9260,27.96,1111122 
COMPS,ioos:station:USF.COMPS:C10:1,2010-09-17T20:40:00Z,27.1690,-82.9260,28.18,1111122 
COMPS,ioos:station:USF.COMPS:C10:1,2010-09-17T21:00:00Z,27.1690,-82.9260,28.2,1111122 
COMPS,ioos:station:USF.COMPS:C10:1,2010-09-17T21:20:00Z,27.1690,-82.9260,28.55,1111122 
COMPS,ioos:station:USF.COMPS:C10:1,2010-09-17T21:40:00Z,27.1690,-82.9260,28.83,1111122 
COMPS,ioos:station:USF.COMPS:C10:1,2010-09-17T22:00:00Z,27.1690,-82.9260,28.8,1111122 
COMPS,ioos:station:USF.COMPS:C10:1,2010-09-17T22:20:00Z,27.1690,-82.9260,29.13,1111122 
COMPS,ioos:station:USF.COMPS:C10:1,2010-09-17T22:40:00Z,27.1690,-82.9260,28.57,1111122 
COMPS,ioos:station:USF.COMPS:C10:1,2010-09-17T23:00:00Z,27.1690,-82.9260,28.15,1111122 
COMPS,ioos:station:USF.COMPS:C10:1,2010-09-17T23:20:00Z,27.1690,-82.9260,28.18,1111122 
COMPS,ioos:station:USF.COMPS:C10:1,2010-09-17T23:40:00Z,27.1690,-82.9260,28.17,1111122 
COMPS,ioos:station:USF.COMPS:C10:1,2010-09-18T00:00:00Z,27.1690,-82.9260,28.19,1111122 
COMPS,ioos:station:USF.COMPS:C10:1,2010-09-18T00:20:00Z,27.1690,-82.9260,28.34,1111122 
COMPS,ioos:station:USF.COMPS:C10:1,2010-09-18T00:40:00Z,27.1690,-82.9260,28.4,1111122 
COMPS,ioos:station:USF.COMPS:C10:1,2010-09-18T01:00:00Z,27.1690,-82.9260,28.4,1111122 
COMPS,ioos:station:USF.COMPS:C10:1,2010-09-18T01:20:00Z,27.1690,-82.9260,28.73,1111122 
COMPS,ioos:station:USF.COMPS:C10:1,2010-09-18T01:40:00Z,27.1690,-82.9260,28.8,1111122 
COMPS,ioos:station:USF.COMPS:C10:1,2010-09-18T02:00:00Z,27.1690,-82.9260,28.8,1111122 
COMPS,ioos:station:USF.COMPS:C10:1,2010-09-18T02:20:00Z,27.1690,-82.9260,28.34,1111122 
COMPS,ioos:station:USF.COMPS:C10:1,2010-09-18T02:40:00Z,27.1690,-82.9260,27.93,1111122 
COMPS,ioos:station:USF.COMPS:C10:1,2010-09-18T03:00:00Z,27.1690,-82.9260,27.9,1111122 
COMPS,ioos:station:USF.COMPS:C10:1,2010-09-18T03:20:00Z,27.1690,-82.9260,27.71,1111122 
COMPS,ioos:station:USF.COMPS:C10:1,2010-09-18T03:40:00Z,27.1690,-82.9260,27.5,1111122 
COMPS,ioos:station:USF.COMPS:C10:1,2010-09-18T04:00:00Z,27.1690,-82.9260,27.5,1111122 
COMPS,ioos:station:USF.COMPS:C10:1,2010-09-18T04:20:00Z,27.1690,-82.9260,27.04,1111122 
COMPS,ioos:station:USF.COMPS:C10:1,2010-09-18T04:40:00Z,27.1690,-82.9260,26.91,1111122 
COMPS,ioos:station:USF.COMPS:C10:1,2010-09-18T05:00:00Z,27.1690,-82.9260,26.84,1111122 
COMPS,ioos:station:USF.COMPS:C10:1,2010-09-18T05:20:00Z,27.1690,-82.9260,26.81,1111122 
COMPS,ioos:station:USF.COMPS:C10:1,2010-09-18T05:40:00Z,27.1690,-82.9260,26.6,1111122 
COMPS,ioos:station:USF.COMPS:C10:1,2010-09-18T06:00:00Z,27.1690,-82.9260,26.6,1111122 
COMPS,ioos:station:USF.COMPS:C10:1,2010-09-18T06:20:00Z,27.1690,-82.9260,26.56,1111122 
COMPS,ioos:station:USF.COMPS:C10:1,2010-09-18T06:40:00Z,27.1690,-82.9260,26.55,1111122 
COMPS,ioos:station:USF.COMPS:C10:1,2010-09-18T07:00:00Z,27.1690,-82.9260,26.6,1111122 
COMPS,ioos:station:USF.COMPS:C10:1,2010-09-18T07:20:00Z,27.1690,-82.9260,26.5,1111122 
COMPS,ioos:station:USF.COMPS:C10:1,2010-09-18T07:40:00Z,27.1690,-82.9260,26.31,1111122 
COMPS,ioos:station:USF.COMPS:C10:1,2010-09-18T08:00:00Z,27.1690,-82.9260,26.3,1111122 
COMPS,ioos:station:USF.COMPS:C10:1,2010-09-18T08:20:00Z,27.1690,-82.9260,25.97,1111122 
COMPS,ioos:station:USF.COMPS:C10:1,2010-09-18T08:40:00Z,27.1690,-82.9260,25.85,1111122 
COMPS,ioos:station:USF.COMPS:C10:1,2010-09-18T09:00:00Z,27.1690,-82.9260,25.9,1111122 
COMPS,ioos:station:USF.COMPS:C10:1,2010-09-18T09:20:00Z,27.1690,-82.9260,25.84,1111122 
COMPS,ioos:station:USF.COMPS:C10:1,2010-09-18T09:40:00Z,27.1690,-82.9260,25.67,1111122 
COMPS,ioos:station:USF.COMPS:C10:1,2010-09-18T10:00:00Z,27.1690,-82.9260,25.7,1111122 
COMPS,ioos:station:USF.COMPS:C10:1,2010-09-18T10:20:00Z,27.1690,-82.9260,25.78,1111122 
COMPS,ioos:station:USF.COMPS:C10:1,2010-09-18T10:40:00Z,27.1690,-82.9260,25.71,1111122 
COMPS,ioos:station:USF.COMPS:C10:1,2010-09-18T11:00:00Z,27.1690,-82.9260,25.7,1111122 
COMPS,ioos:station:USF.COMPS:C10:1,2010-09-18T11:20:00Z,27.1690,-82.9260,25.84,1111122 
COMPS,ioos:station:USF.COMPS:C10:1,2010-09-18T11:40:00Z,27.1690,-82.9260,26.03,1111122 
COMPS,ioos:station:USF.COMPS:C10:1,2010-09-18T12:00:00Z,27.1690,-82.9260,26.0,1111122 
COMPS,ioos:station:USF.COMPS:C10:1,2010-09-18T12:20:00Z,27.1690,-82.9260,26.12,1111122 
COMPS,ioos:station:USF.COMPS:C10:1,2010-09-18T12:40:00Z,27.1690,-82.9260,26.15,1111122 
COMPS,ioos:station:USF.COMPS:C10:1,2010-09-18T13:00:00Z,27.1690,-82.9260,26.2,1111122 
COMPS,ioos:station:USF.COMPS:C10:1,2010-09-18T13:20:00Z,27.1690,-82.9260,26.23,1111122 
COMPS,ioos:station:USF.COMPS:C10:1,2010-09-18T13:40:00Z,27.1690,-82.9260,26.31,1111122 
COMPS,ioos:station:USF.COMPS:C10:1,2010-09-18T14:00:00Z,27.1690,-82.9260,26.3,1111122 
COMPS,ioos:station:USF.COMPS:C10:1,2010-09-18T14:20:00Z,27.1690,-82.9260,26.31,1111122 
COMPS,ioos:station:USF.COMPS:C10:1,2010-09-18T14:40:00Z,27.1690,-82.9260,26.35,1111122 
COMPS,ioos:station:USF.COMPS:C10:1,2010-09-18T15:00:00Z,27.1690,-82.9260,26.4,1111122 
COMPS,ioos:station:USF.COMPS:C10:1,2010-09-18T15:20:00Z,27.1690,-82.9260,26.48,1111122 
COMPS,ioos:station:USF.COMPS:C10:1,2010-09-18T15:40:00Z,27.1690,-82.9260,26.65,1111122 
COMPS,ioos:station:USF.COMPS:C10:1,2010-09-18T16:00:00Z,27.1690,-82.9260,26.7,1111122 
COMPS,ioos:station:USF.COMPS:C10:1,2010-09-18T16:20:00Z,27.1690,-82.9260,27.06,1111122 
COMPS,ioos:station:USF.COMPS:C10:1,2010-09-18T16:40:00Z,27.1690,-82.9260,27.18,1111122 
COMPS,ioos:station:USF.COMPS:C10:1,2010-09-18T17:00:00Z,27.1690,-82.9260,27.2,1111122 
COMPS,ioos:station:USF.COMPS:C10:1,2010-09-18T17:20:00Z,27.1690,-82.9260,27.33,1111122 
COMPS,ioos:station:USF.COMPS:C10:1,2010-09-18T17:40:00Z,27.1690,-82.9260,27.52,1111122 
COMPS,ioos:station:USF.COMPS:C10:1,2010-09-18T18:00:00Z,27.1690,-82.9260,27.5,1111122 
COMPS,ioos:station:USF.COMPS:C10:1,2010-09-18T18:20:00Z,27.1690,-82.9260,27.79,1111122 